Lapse_Rate
4.9 6.5 6.5 6.5 6.5 6.5 6.5 6.5 6.5 6.5 6.5 6.5 6.5 6.5 6.5 6.4 6.6 6.0 4.8 5.9 5.9 6.4 6.6 6.9 7.3 5.1 5.3 4.7 5.2 5.1 5.0 5.8 5.0 4.0 4.3 4.5 5.0 4.6 5.1 4.8 6.5 6.4 6.2 6.0
6.5 6.5 6.5 6.5 6.5 6.5 6.5 6.5 6.5 6.5 6.5 6.5 6.5 6.5 6.5 6.4 6.3 6.0 5.2 5.1 6.5 6.8 6.6 6.9 6.7 7.2 5.9 6.3 5.9 5.4 4.9 5.3 5.4 4.6 4.1 5.5 5.6 4.1 6.1 4.6 5.6 6.4 6.6 6.1
6.5 6.5 6.5 6.5 6.5 6.5 6.5 6.5 6.5 6.5 6.5 6.5 6.5 6.5 6.5 6.5 5.1 5.4 5.7 4.9 6.2 5.7 6.5 6.5 6.5 7.2 6.6 6.1 5.7 5.2 5.2 4.5 5.1 4.4 4.1 5.0 5.5 4.5 3.9 4.1 5.9 5.2 6.5 6.4
6.5 6.4 6.5 6.5 6.5 6.5 6.5 6.5 6.5 6.5 6.5 6.5 6.5 6.5 6.5 6.5 6.5 6.5 6.5 5.7 6.1 4.7 6.5 6.2 6.1 7.0 6.0 5.6 5.9 5.1 5.2 5.3 4.5 3.9 4.3 5.0 4.9 5.4 4.1 3.6 4.1 4.8 6.4 6.7
6.5 6.5 6.5 6.5 6.5 6.5 6.5 6.5 6.5 6.5 6.5 6.5 6.5 6.5 6.5 6.5 6.5 6.5 6.2 6.4 6.4 5.9 6.8 6.2 6.1 7.3 6.5 5.9 5.8 5.2 4.8 5.3 5.6 4.6 4.2 4.5 4.7 4.7 4.3 3.8 3.5 3.7 4.7 6.6
6.5 5.6 6.5 6.5 6.5 6.5 6.5 6.5 6.5 6.5 6.5 6.5 6.5 6.5 6.5 6.5 6.5 6.5 6.3 6.5 6.3 6.6 6.5 6.5 7.1 7.3 6.6 5.8 5.8 5.4 4.4 4.3 4.7 4.7 4.3 4.5 4.3 4.5 4.6 4.3 3.7 3.2 4.4 5.1
6.5 6.5 6.5 6.3 6.5 6.5 6.5 6.5 6.5 6.5 6.5 6.5 6.5 6.5 6.5 6.5 6.5 6.5 6.5 5.9 6.6 6.3 6.1 6.3 4.9 4.2 5.2 6.5 5.7 5.3 4.5 4.2 4.9 4.9 4.3 4.6 4.5 3.9 4.4 4.6 3.4 3.5 3.5 3.9
6.5 6.5 6.5 6.5 6.5 6.5 6.5 6.5 6.5 6.5 6.5 6.5 6.5 6.5 6.5 6.5 6.1 6.7 5.8 5.1 6.6 6.6 6.4 4.8 3.7 5.7 5.2 6.7 6.6 5.4 4.9 4.2 4.6 4.8 4.3 4.2 4.3 3.7 3.4 4.4 4.0 2.6 2.2 2.5
6.5 6.5 6.5 6.5 6.5 6.5 6.5 6.5 6.5 6.5 6.5 6.5 6.5 6.5 6.5 6.5 6.5 6.5 6.2 5.2 6.1 5.6 5.9 3.0 2.5 1.8 4.8 5.9 7.1 4.9 4.2 4.4 4.4 4.3 5.0 3.9 4.1 4.1 4.1 4.4 3.9 3.6 3.2 3.4
6.5 6.5 6.5 6.5 6.2 6.4 6.5 6.5 6.5 6.5 6.5 6.5 6.5 6.5 6.5 6.5 6.5 6.5 6.5 5.9 2.5 2.4 3.3 4.3 4.6 3.4 3.2 5.6 6.4 5.1 3.8 3.8 4.3 5.0 4.6 4.7 4.4 3.7 3.8 3.8 3.9 4.6 4.4 4.6
6.5 6.5 6.5 6.5 6.5 6.5 6.5 6.5 6.5 6.5 6.5 6.5 6.5 6.5 6.5 6.5 6.5 6.5 6.5 5.8 3.9 1.8 2.5 2.8 4.0 5.8 4.2 5.9 5.7 4.5 4.1 4.0 4.0 4.7 4.8 5.0 4.3 4.4 3.8 4.1 4.1 4.8 4.6 4.7
6.5 6.5 6.5 6.5 6.5 6.5 6.5 6.5 6.5 6.5 6.5 6.5 6.5 6.5 6.5 6.5 6.5 6.3 6.7 6.2 2.3 2.1 1.0 0.8 3.8 6.9 5.7 5.5 5.3 4.4 4.3 4.1 4.1 4.4 4.7 5.3 4.8 4.9 4.7 4.6 4.3 4.3 4.3 4.4
6.5 6.5 6.5 6.5 6.5 6.5 6.5 6.5 6.5 6.5 6.5 6.5 6.5 6.5 6.5 6.5 6.5 6.4 5.5 4.9 4.2 2.1 3.7 3.1 6.0 4.7 4.6 4.6 5.3 4.6 4.7 4.4 4.4 4.5 4.3 4.5 4.9 4.9 4.7 4.4 4.2 4.0 4.2 4.3
5.2 6.5 6.5 6.5 6.5 6.5 6.5 6.5 6.5 6.5 6.5 6.5 6.5 6.5 6.5 6.5 6.5 6.3 5.9 2.7 2.6 3.0 2.4 2.0 5.5 4.0 3.4 3.3 3.3 4.9 4.6 5.2 4.7 4.7 4.3 3.9 4.1 4.9 5.0 4.6 4.2 5.1 3.9 4.1
6.5 6.5 6.5 6.5 6.5 6.5 6.5 6.5 6.5 6.5 6.5 6.5 6.5 6.5 6.5 6.5 6.5 6.3 6.1 2.7 2.7 2.5 4.1 1.1 4.5 3.9 2.8 3.0 3.5 4.3 4.3 4.9 5.3 4.9 4.0 3.7 4.1 3.9 4.4 4.0 4.2 4.7 4.7 5.2
6.5 6.5 6.5 6.5 6.5 6.5 6.5 6.5 6.5 6.5 6.5 6.5 6.5 6.5 6.5 5.2 6.0 6.5 6.4 2.3 6.0 4.5 4.4 5.6 4.4 4.3 3.6 3.5 3.5 4.4 4.4 4.5 4.6 4.2 4.7 3.7 4.2 4.7 4.8 4.7 4.8 3.2 4.8 3.7
6.5 6.5 6.5 6.5 6.5 6.5 6.5 6.5 6.5 6.5 6.5 6.5 6.5 6.5 6.5 6.5 6.5 6.3 5.6 5.5 4.6 2.0 1.5 4.8 4.4 4.1 4.0 3.8 3.9 4.1 3.8 4.2 3.1 2.0 3.5 3.8 4.3 4.8 4.9 4.8 4.9 5.0 4.7 4.5
6.5 6.5 6.5 6.5 6.5 6.5 6.5 6.5 6.5 6.5 6.5 6.5 6.5 6.5 6.5 5.7 4.7 5.4 4.1 4.1 2.9 4.2 1.9 0.8 3.7 4.3 3.7 4.0 4.7 4.7 4.2 4.7 3.6 2.9 3.0 2.5 2.8 2.9 2.9 2.5 2.8 2.7 3.3 3.8
6.5 6.5 6.5 6.5 6.5 6.5 6.5 6.5 6.5 6.5 6.5 6.5 6.5 6.5 6.2 4.9 3.5 5.7 3.4 2.6 1.6 1.7 0.3 0.7 4.0 2.7 3.1 3.0 4.3 4.5 4.5 4.3 4.3 3.8 3.1 2.8 3.1 2.2 1.7 1.3 0.9 0.8 0.7 0.8
6.5 6.5 6.5 6.5 6.5 6.5 6.5 6.5 6.3 6.5 6.5 6.5 6.3 6.5 6.4 5.3 6.5 6.5 2.9 2.1 2.1 1.9 2.7 3.1 4.0 2.5 3.4 3.5 4.1 4.8 4.3 4.0 3.8 2.9 2.4 2.2 1.4 0.8 0.1 -0.8 -1.1 -1.2 -1.1 -0.6
6.5 6.5 6.5 6.5 6.5 6.5 6.5 6.2 5.2 6.5 6.5 6.2 6.5 5.0 5.3 6.5 5.3 3.5 3.1 4.0 2.3 2.1 2.5 1.0 3.8 2.7 3.6 4.3 4.3 4.5 4.6 3.9 3.2 3.5 2.3 1.2 -0.2 -0.9 -2.2 -2.9 -2.8 -2.5 -2.7 -2.3
6.5 6.5 6.5 6.5 6.5 6.5 5.9 6.3 6.5 6.0 4.8 5.2 5.3 4.9 5.1 4.1 3.9 4.7 5.7 5.9 6.4 5.2 6.8 6.1 4.4 4.0 3.3 3.9 3.9 4.8 4.4 3.7 3.5 2.7 1.2 0.1 -1.4 -1.9 -2.2 -2.7 -3.1 -3.3 -3.0 -2.9
6.5 6.5 6.5 6.5 6.5 5.9 4.4 4.4 2.6 3.6 1.3 3.3 2.4 5.6 4.9 5.0 5.0 4.7 4.4 5.2 5.2 5.1 4.7 5.0 3.8 3.0 3.3 3.6 3.6 4.3 4.4 3.9 3.1 1.9 0.2 -0.3 -1.1 -1.2 -1.8 -2.4 -2.5 -2.9 -2.6 -0.7
6.5 6.4 6.5 6.5 6.5 6.5 5.6 4.7 4.3 2.1 2.7 2.3 2.5 5.2 5.5 5.0 5.0 4.8 4.4 4.6 4.7 4.3 3.5 3.5 3.1 2.9 3.5 3.6 4.2 4.4 4.1 4.1 3.0 1.7 0.4 -0.1 0.0 -0.2 -1.2 -1.2 -2.0 -2.1 -1.8 -0.5
6.1 6.3 6.5 6.5 6.5 5.6 5.3 5.1 4.8 3.4 1.8 3.9 2.5 4.7 4.9 4.5 4.3 3.8 3.4 3.2 3.7 4.3 4.9 4.3 3.8 3.6 3.7 4.2 4.7 5.3 5.0 4.6 3.5 2.2 1.3 0.6 0.3 0.1 0.6 -0.4 0.1 0.7 1.4 0.4
6.1 6.5 6.5 6.5 6.4 6.3 6.0 6.0 6.1 4.1 3.4 2.9 3.5 4.6 4.2 3.6 3.2 3.4 3.6 3.6 3.7 3.4 3.8 4.1 4.3 4.4 4.5 5.1 4.9 5.1 5.0 4.8 4.4 3.1 2.5 1.4 1.2 0.8 0.8 2.6 4.0 3.9 2.6 1.4
Wind_Speed
8 4 7 12 14 17 7 11 8 8 13 9 20 10 14 12 13 8 6 13 15 16 13 15 15 21 20 16 16 15 12 12 8 4 4 2 3 3 3 5 15 14 11 7
7 9 12 15 15 15 14 13 8 6 10 9 11 16 14 16 8 10 8 9 17 15 17 15 13 19 20 18 17 17 11 11 10 7 4 3 4 3 5 6 14 16 13 10
10 13 16 16 13 11 10 3 10 8 19 22 9 3 18 5 12 18 13 8 14 14 17 15 19 18 18 16 14 17 14 11 10 8 4 3 3 1 3 2 5 6 13 12
9 17 16 14 10 7 7 6 7 15 8 5 6 4 8 14 14 16 19 14 14 10 19 15 18 17 19 18 15 13 17 14 9 9 5 5 4 3 4 4 4 5 9 11
11 12 11 10 7 7 8 7 7 4 8 6 8 1 3 10 11 14 13 18 19 15 22 18 20 21 21 18 17 14 16 14 10 8 7 6 4 3 3 4 5 4 4 9
13 12 7 9 10 8 7 6 8 6 1 2 9 6 4 9 14 13 12 17 21 18 19 20 21 19 20 19 18 16 15 15 11 9 7 8 8 6 2 3 5 4 4 4
14 12 10 8 5 7 5 1 4 4 4 6 6 4 8 8 8 15 18 15 23 20 15 18 17 12 14 18 19 17 16 15 13 12 8 8 8 8 7 4 5 5 2 1
8 9 16 12 10 9 7 9 6 6 5 5 5 4 7 9 18 17 11 16 19 21 18 19 15 17 18 16 19 19 18 16 15 12 9 7 7 4 5 6 4 5 5 5
6 13 13 11 10 11 9 5 11 6 7 1 4 5 6 2 8 16 16 7 11 16 15 15 14 12 15 16 20 20 19 17 17 14 11 9 8 7 6 7 6 6 5 4
10 9 14 11 9 9 9 7 3 3 5 5 5 3 5 4 9 3 8 12 5 1 7 1 10 14 15 16 16 19 18 19 17 14 13 10 11 8 7 6 8 8 8 9
15 9 14 7 4 9 3 6 4 2 4 6 5 5 7 13 16 10 9 13 12 5 0 5 8 14 17 19 17 17 16 16 15 15 12 12 11 11 8 7 6 7 6 7
11 8 7 11 11 7 9 11 9 5 10 4 5 6 7 11 10 21 15 9 9 7 8 8 26 21 18 17 15 17 16 14 14 14 13 12 11 11 11 10 9 7 8 7
5 2 2 6 8 10 7 9 8 5 5 9 2 5 2 21 18 17 20 16 16 11 3 15 18 15 14 15 14 13 15 15 13 13 12 11 10 11 11 12 11 10 9 8
6 4 4 7 8 3 7 7 9 7 3 6 6 4 6 14 14 8 8 17 15 14 11 8 8 12 11 9 9 11 14 14 14 12 12 9 11 10 11 11 10 12 9 9
2 3 6 8 10 9 13 9 12 7 7 4 5 4 4 12 14 14 9 3 8 12 13 7 13 12 8 8 7 9 7 10 12 12 9 10 8 6 7 7 7 9 7 8
9 6 6 7 13 11 15 15 15 10 7 9 14 4 6 8 15 17 24 23 15 6 6 10 14 14 10 9 8 7 7 7 7 6 6 7 6 4 4 5 4 3 2 10
5 6 4 7 9 11 10 9 9 6 6 5 5 8 6 4 15 21 13 12 6 13 9 9 11 10 9 8 8 7 6 6 7 6 7 7 6 4 3 4 3 2 4 5
7 7 2 3 6 9 4 11 15 5 0 4 13 11 12 10 12 14 21 21 12 15 6 6 1 8 8 8 8 8 7 7 7 8 8 7 7 7 7 6 6 5 4 4
7 4 4 3 5 9 11 6 5 3 4 1 8 8 6 8 7 4 5 11 15 8 9 8 14 9 9 9 7 8 7 8 11 9 9 9 9 7 6 6 6 6 6 6
12 9 5 4 4 5 2 5 7 3 5 7 12 7 8 7 5 4 2 10 13 18 14 9 8 9 10 6 7 8 9 9 10 9 7 9 7 6 7 8 8 7 6 8
5 4 13 10 7 6 5 3 7 4 4 12 19 10 10 5 6 8 9 8 13 17 14 8 6 10 8 7 7 10 11 11 9 9 9 8 8 7 6 6 6 8 8 9
2 4 3 7 13 18 7 2 7 5 4 2 15 17 19 14 13 15 18 15 17 15 17 14 12 9 8 9 11 10 11 10 10 10 10 9 9 7 6 7 6 8 8 9
2 4 5 3 5 4 7 7 6 3 4 5 8 7 17 16 14 12 11 14 12 10 8 11 12 11 7 7 9 11 10 11 11 11 9 9 8 9 7 8 7 6 7 7
3 5 4 8 5 9 9 6 6 4 4 5 5 13 13 13 13 11 9 10 12 12 11 11 10 8 7 6 7 9 11 12 12 10 9 6 7 8 8 7 6 6 7 7
5 6 5 11 4 11 10 13 10 11 11 9 14 17 8 10 10 12 11 11 11 10 10 10 9 7 7 6 7 10 10 12 11 10 8 6 5 6 8 9 8 7 7 6
5 6 4 4 6 2 10 5 13 4 6 18 27 4 8 11 11 12 9 8 8 8 8 8 8 8 7 7 8 9 8 10 11 10 7 4 4 4 3 5 4 5 8 15
Wind_Direction
233 189 228 222 236 245 234 150 160 222 251 207 243 204 219 204 221 198 193 160 163 164 168 169 158 149 159 167 168 178 176 173 169 172 157 211 238 220 189 176 187 188 218 197
258 220 232 244 248 251 263 159 196 225 262 228 258 201 196 184 209 194 195 183 165 174 168 173 157 152 165 171 162 179 177 163 168 179 165 176 198 208 208 165 173 182 194 219
215 247 221 240 259 270 270 261 132 152 229 222 263 18 175 183 148 234 189 192 180 172 163 166 165 165 162 165 167 163 168 162 171 189 157 194 202 107 85 118 162 190 192 199
230 244 254 236 232 251 275 237 237 160 159 226 223 227 210 173 181 222 195 187 189 174 171 170 170 177 169 171 171 159 164 171 174 184 176 180 180 162 160 153 179 189 203 193
240 247 256 264 266 223 247 284 288 253 187 180 270 168 292 148 206 208 202 192 197 194 176 175 176 182 174 171 173 169 169 174 181 181 180 187 182 187 152 165 184 187 207 206
267 262 265 225 238 241 266 317 303 304 209 195 230 198 204 193 205 193 214 207 195 194 184 181 179 181 173 175 173 170 168 178 183 185 192 191 185 191 126 179 186 187 196 224
279 273 269 274 271 296 192 221 318 324 331 239 14 25 14 259 225 201 201 195 195 183 176 169 162 154 153 177 175 176 170 180 188 187 189 191 198 187 170 171 174 151 171 245
234 275 235 223 196 201 243 174 172 226 225 237 344 156 197 216 232 249 211 221 191 182 182 166 159 177 153 179 179 178 179 176 185 191 190 190 196 190 183 189 175 181 195 207
277 280 297 285 207 161 251 248 217 240 264 277 220 284 288 301 209 230 228 124 151 168 171 157 174 185 192 190 185 178 179 182 183 187 193 185 194 198 196 202 174 195 207 229
234 263 276 298 179 200 176 237 278 298 241 263 232 240 228 217 175 263 146 142 71 32 138 92 215 181 177 185 181 174 179 181 184 186 189 194 195 196 197 205 209 196 194 209
212 202 269 313 218 191 216 252 263 210 178 201 255 246 218 191 207 118 81 119 158 237 89 33 250 226 183 182 172 173 179 181 182 188 187 194 192 197 197 215 218 209 213 205
209 193 221 235 268 223 197 196 202 155 282 247 196 269 319 196 120 124 114 120 95 168 192 313 227 193 165 164 161 171 178 180 183 185 190 195 196 195 195 207 213 213 209 209
330 285 218 304 319 308 209 225 206 214 212 251 223 271 176 108 115 133 135 149 139 141 144 295 169 155 151 154 168 163 174 183 183 186 187 187 194 198 202 203 206 204 205 203
19 302 169 208 216 265 317 208 211 220 222 250 238 167 118 114 134 163 181 161 173 161 128 285 195 153 148 151 155 166 177 183 184 186 191 194 196 200 204 214 211 215 208 211
148 262 309 298 292 310 309 270 260 248 237 223 241 126 192 141 163 168 137 87 180 142 181 187 155 144 126 120 134 169 155 164 177 184 183 196 201 205 221 241 220 237 219 221
337 296 275 284 294 298 302 293 261 261 303 331 293 188 173 143 151 147 169 169 206 223 218 161 111 116 117 122 120 117 126 128 124 148 168 169 170 192 240 266 288 294 166 274
310 336 5 271 272 295 273 273 289 254 252 89 347 276 148 133 151 163 132 50 71 17 343 116 117 113 115 114 117 108 99 103 90 83 75 69 71 55 350 307 298 289 257 251
300 323 311 280 333 257 279 276 292 235 232 22 332 173 160 148 120 141 134 128 171 181 134 20 79 105 98 92 94 92 90 88 83 73 72 60 54 44 22 11 3 351 320 274
252 273 299 208 256 291 314 1 305 180 273 345 317 294 90 95 93 36 178 155 170 116 99 26 294 98 98 91 88 105 96 77 83 72 63 49 45 30 12 7 355 346 340 327
225 222 207 291 291 260 277 321 329 66 313 301 326 242 185 159 102 232 135 125 111 112 120 166 221 101 98 112 102 104 95 93 87 87 79 59 42 24 11 359 347 335 326 305
228 241 232 233 240 257 153 232 283 113 241 0 310 212 168 114 137 139 173 128 121 146 156 159 195 125 139 135 112 105 107 101 106 92 77 65 44 38 27 357 344 333 322 308
274 222 259 228 231 246 148 69 197 225 57 20 19 118 111 116 105 107 113 120 118 144 153 153 122 111 98 101 105 113 110 114 101 89 78 68 51 38 23 11 351 337 330 317
356 31 306 324 312 267 206 189 197 185 43 49 19 297 116 113 114 109 111 121 123 125 98 124 119 108 104 117 128 125 125 122 104 94 87 85 73 56 34 27 10 354 342 323
41 84 324 314 322 326 303 42 50 2 153 72 345 259 130 128 128 128 127 121 111 103 107 110 107 112 133 123 121 129 136 122 112 111 103 90 85 71 52 48 34 14 356 337
216 148 193 253 330 341 38 12 14 49 351 325 290 284 134 123 120 113 109 106 114 116 125 130 130 138 154 147 145 135 139 129 126 119 116 119 100 79 71 57 42 33 24 355
183 180 173 242 139 171 294 319 345 150 219 273 257 146 85 104 105 111 112 120 121 118 117 121 134 142 164 160 138 146 149 134 137 132 127 125 113 102 83 73 51 35 36 25